sat.trackr.live / text

‹ back to catalog

STARLINK-32766

NORAD 62574 · 2025-006W

PAYLOAD ACTIVE UNKNOWN

§ Identity

Operator
Country
US
Launch date
2025-01-10
Launch site
AFETR
Launch vehicle
Mass (kg)
RCS (m²)

Purposes: comms

External: N2YO · Heavens-Above · Gunter

§ Orbital elements

Epoch: 2026-09-21T06:22:42.890016Z

Period
94.27 min
Inclination
43.0028°
Eccentricity
0.0001706
Mean motion
15.27589738 rev/d
Perigee alt
481.8 km
Apogee alt
484.2 km
Semi-major
6,861.2 km
B*
3.1046e-4
RAAN
268.0467°
Arg perigee
283.2001°
Mean anomaly
76.8661°
Rev number
9,477

§ Raw data

STARLINK-327661 62574U 25006W   26264.26577419  .00008293  00000+0  31046-3 0  99962 62574  43.0028 268.0467 0001706 283.2001  76.8661 15.27589738 94772

JSON: /api/v1/satellites/62574 · /tle

For live sub-satellite position, see the globe view (requires WebGL).

§ Visibility from observer

Set your observer location to see the next 7 days of passes ≥ 10°. The values pass through the URL so the page stays shareable.

No JS? Fill the form by hand. The geolocation button needs JavaScript.